Time,TemperatureF,DewpointF,PressureIn,WindDirection,WindDirectionDegrees,WindSpeedMPH,WindSpeedGustMPH,Humidity,HourlyPrecipIn,Conditions,Clouds,dailyrainin,SoftwareType,DateUTC
2013-01-22 00:00:00,11.3,6.0,30.24,NW,315,3.1,6.3,79,0.00,,,0.00,WUHU216HW,2013-01-22 05:00:00,
2013-01-22 00:01:00,11.2,5.9,30.24,SW,225,2.5,6.3,79,0.00,,,0.00,WUHU216HW,2013-01-22 05:01:00,
2013-01-22 00:06:00,11.2,6.4,30.24,South,180,1.1,6.3,81,0.00,,,0.00,WUHU216HW,2013-01-22 05:06:00,
2013-01-22 00:12:00,11.0,6.2,30.24,WSW,248,1.8,3.4,81,0.00,,,0.00,WUHU216HW,2013-01-22 05:12:00,
2013-01-22 00:17:00,11.0,6.2,30.24,West,270,1.1,2.5,81,0.00,,,0.00,WUHU216HW,2013-01-22 05:17:00,
2013-01-22 00:22:00,11.0,5.0,30.25,SW,225,6.3,6.3,77,0.00,,,0.00,WUHU216HW,2013-01-22 05:22:00,
2013-01-22 00:27:00,11.2,5.2,30.24,North,0,1.3,6.3,77,0.00,,,0.00,WUHU216HW,2013-01-22 05:27:00,
2013-01-22 00:32:00,11.2,5.0,30.24,WNW,293,2.9,4.7,76,0.00,,,0.00,WUHU216HW,2013-01-22 05:32:00,
2013-01-22 00:37:00,11.2,4.7,30.24,SSW,203,1.8,4.7,75,0.00,,,0.00,WUHU216HW,2013-01-22 05:37:00,
2013-01-22 00:42:00,11.2,4.4,30.24,West,270,2.0,4.0,74,0.00,,,0.00,WUHU216HW,2013-01-22 05:42:00,
2013-01-22 00:47:00,11.3,4.6,30.24,WSW,248,4.7,4.7,74,0.00,,,0.00,WUHU216HW,2013-01-22 05:47:00,
2013-01-22 00:52:00,11.3,4.3,30.24,SW,225,2.5,4.7,73,0.00,,,0.00,WUHU216HW,2013-01-22 05:52:00,
2013-01-22 00:57:00,11.2,4.7,30.24,South,180,3.4,3.6,75,0.00,,,0.00,WUHU216HW,2013-01-22 05:57:00,
2013-01-22 01:02:00,11.0,4.5,30.24,SW,225,1.8,4.9,75,0.00,,,0.00,WUHU216HW,2013-01-22 06:02:00,
2013-01-22 01:07:00,10.8,5.2,30.24,WSW,248,2.9,4.9,78,0.00,,,0.00,WUHU216HW,2013-01-22 06:07:00,
2013-01-22 01:12:00,10.6,5.3,30.24,NNW,338,1.3,6.3,79,0.00,,,0.00,WUHU216HW,2013-01-22 06:12:00,
2013-01-22 01:17:00,10.4,5.4,30.24,SSW,203,3.1,6.7,80,0.00,,,0.00,WUHU216HW,2013-01-22 06:17:00,
2013-01-22 01:22:00,10.4,5.7,30.24,SW,225,5.1,6.7,81,0.00,,,0.00,WUHU216HW,2013-01-22 06:22:00,
2013-01-22 01:27:00,10.4,5.4,30.24,WSW,248,1.3,5.1,80,0.00,,,0.00,WUHU216HW,2013-01-22 06:27:00,
2013-01-22 01:32:00,10.4,4.5,30.25,South,180,2.0,6.3,77,0.00,,,0.00,WUHU216HW,2013-01-22 06:32:00,
2013-01-22 01:37:00,10.4,4.5,30.25,SW,225,1.8,6.3,77,0.00,,,0.00,WUHU216HW,2013-01-22 06:37:00,
2013-01-22 01:42:00,10.3,4.7,30.25,SSW,203,3.6,6.3,78,0.00,,,0.00,WUHU216HW,2013-01-22 06:42:00,
2013-01-22 01:47:00,10.3,5.0,30.25,SE,135,2.0,6.3,79,0.00,,,0.00,WUHU216HW,2013-01-22 06:47:00,
2013-01-22 01:52:00,10.3,5.0,30.25,SSE,158,1.1,5.8,79,0.00,,,0.00,WUHU216HW,2013-01-22 06:52:00,
2013-01-22 01:57:00,10.3,4.7,30.26,SSW,203,1.3,5.8,78,0.00,,,0.00,WUHU216HW,2013-01-22 06:57:00,
2013-01-22 02:02:00,10.3,4.7,30.25,SSW,203,2.5,2.9,78,0.00,,,0.00,WUHU216HW,2013-01-22 07:02:00,
2013-01-22 02:07:00,10.1,4.8,30.25,SSW,203,0.9,6.9,79,0.00,,,0.00,WUHU216HW,2013-01-22 07:07:00,
2013-01-22 02:12:00,10.1,5.0,30.26,SW,225,0.9,6.9,80,0.00,,,0.00,WUHU216HW,2013-01-22 07:12:00,
2013-01-22 02:17:00,9.9,5.0,30.26,WNW,293,2.9,4.9,80,0.00,,,0.00,WUHU216HW,2013-01-22 07:17:00,
2013-01-22 02:22:00,9.9,4.1,30.26,SE,135,1.1,4.9,77,0.00,,,0.00,WUHU216HW,2013-01-22 07:22:00,
2013-01-22 02:27:00,10.1,3.1,30.26,SSW,203,1.6,4.0,73,0.00,,,0.00,WUHU216HW,2013-01-22 07:27:00,
2013-01-22 02:32:00,10.1,2.2,30.27,West,270,1.6,4.0,70,0.00,,,0.00,WUHU216HW,2013-01-22 07:32:00,
2013-01-22 02:37:00,10.1,2.5,30.27,SSW,203,2.5,3.6,71,0.00,,,0.00,WUHU216HW,2013-01-22 07:37:00,
2013-01-22 02:42:00,10.1,1.5,30.27,SSW,203,2.5,6.0,68,0.00,,,0.00,WUHU216HW,2013-01-22 07:42:00,
2013-01-22 02:47:00,10.1,1.9,30.27,WSW,248,3.6,6.0,69,0.00,,,0.00,WUHU216HW,2013-01-22 07:47:00,
2013-01-22 02:52:00,10.1,1.5,30.27,South,180,0.4,4.7,68,0.00,,,0.00,WUHU216HW,2013-01-22 07:52:00,
2013-01-22 02:57:00,9.9,1.7,30.27,SW,225,4.0,4.7,69,0.00,,,0.00,WUHU216HW,2013-01-22 07:57:00,
2013-01-22 03:02:00,9.9,1.1,30.27,NE,45,2.9,4.7,67,0.00,,,0.00,WUHU216HW,2013-01-22 08:02:00,
2013-01-22 03:07:00,9.9,1.4,30.27,SW,225,4.0,4.7,68,0.00,,,0.00,WUHU216HW,2013-01-22 08:07:00,
2013-01-22 03:12:00,9.9,1.1,30.28,SSW,203,3.6,4.0,67,0.00,,,0.00,WUHU216HW,2013-01-22 08:12:00,
2013-01-22 03:17:00,9.9,1.4,30.28,West,270,1.1,4.7,68,0.00,,,0.00,WUHU216HW,2013-01-22 08:17:00,
2013-01-22 03:22:00,9.9,1.4,30.28,ESE,113,1.8,6.3,68,0.00,,,0.00,WUHU216HW,2013-01-22 08:22:00,
2013-01-22 03:27:00,9.9,1.7,30.28,SW,225,1.3,6.3,69,0.00,,,0.00,WUHU216HW,2013-01-22 08:27:00,
2013-01-22 03:32:00,9.9,2.1,30.28,SSE,158,2.9,5.4,70,0.00,,,0.00,WUHU216HW,2013-01-22 08:32:00,
2013-01-22 03:37:00,9.7,2.7,30.28,WSW,248,5.1,6.5,73,0.00,,,0.00,WUHU216HW,2013-01-22 08:37:00,
2013-01-22 03:42:00,9.4,3.6,30.28,SSE,158,0.7,6.5,77,0.00,,,0.00,WUHU216HW,2013-01-22 08:42:00,
2013-01-22 03:47:00,9.4,3.6,30.28,NW,315,3.1,3.8,77,0.00,,,0.00,WUHU216HW,2013-01-22 08:47:00,
2013-01-22 03:52:00,9.2,3.7,30.28,SW,225,3.6,3.6,78,0.00,,,0.00,WUHU216HW,2013-01-22 08:52:00,
2013-01-22 03:57:00,9.0,4.2,30.29,West,270,1.6,3.6,80,0.00,,,0.00,WUHU216HW,2013-01-22 08:57:00,
2013-01-22 04:02:00,9.0,4.3,30.29,NNW,338,0.4,3.4,81,0.00,,,0.00,WUHU216HW,2013-01-22 09:02:00,
2013-01-22 04:07:00,8.8,4.4,30.29,NW,315,1.1,2.5,82,0.00,,,0.00,WUHU216HW,2013-01-22 09:07:00,
2013-01-22 04:12:00,8.8,4.7,30.29,SW,225,0.4,2.5,83,0.00,,,0.00,WUHU216HW,2013-01-22 09:12:00,
2013-01-22 04:17:00,8.8,4.7,30.29,SSW,203,1.8,2.5,83,0.00,,,0.00,WUHU216HW,2013-01-22 09:17:00,
2013-01-22 04:22:00,8.8,5.0,30.29,NW,315,1.1,2.5,84,0.00,,,0.00,WUHU216HW,2013-01-22 09:22:00,
2013-01-22 04:27:00,8.8,5.0,30.29,SW,225,1.8,3.4,84,0.00,,,0.00,WUHU216HW,2013-01-22 09:27:00,
2013-01-22 04:32:00,8.8,5.0,30.30,SSW,203,1.8,3.4,84,0.00,,,0.00,WUHU216HW,2013-01-22 09:32:00,
2013-01-22 04:37:00,8.8,5.0,30.30,WSW,248,1.3,3.6,84,0.00,,,0.00,WUHU216HW,2013-01-22 09:37:00,
2013-01-22 04:42:00,8.8,5.0,30.30,NNW,338,0.2,5.8,84,0.00,,,0.00,WUHU216HW,2013-01-22 09:42:00,
2013-01-22 04:47:00,8.8,5.0,30.30,WNW,293,1.1,5.8,84,0.00,,,0.00,WUHU216HW,2013-01-22 09:47:00,
2013-01-22 04:52:00,8.8,5.0,30.30,South,180,0.7,1.8,84,0.00,,,0.00,WUHU216HW,2013-01-22 09:52:00,
2013-01-22 04:57:00,8.8,5.0,30.30,West,270,0.4,4.3,84,0.00,,,0.00,WUHU216HW,2013-01-22 09:57:00,
2013-01-22 05:02:00,8.8,5.0,30.30,NNW,338,0.4,4.3,84,0.00,,,0.00,WUHU216HW,2013-01-22 10:02:00,
2013-01-22 05:07:00,9.0,5.1,30.30,SW,225,0.4,2.2,84,0.00,,,0.00,WUHU216HW,2013-01-22 10:07:00,
2013-01-22 05:12:00,9.0,5.1,30.30,SW,225,0.2,2.2,84,0.00,,,0.00,WUHU216HW,2013-01-22 10:12:00,
2013-01-22 05:17:00,9.0,5.1,30.30,West,270,0.2,2.2,84,0.00,,,0.00,WUHU216HW,2013-01-22 10:17:00,
2013-01-22 05:22:00,9.0,5.1,30.31,SSW,203,1.1,2.7,84,0.00,,,0.00,WUHU216HW,2013-01-22 10:22:00,
2013-01-22 05:27:00,9.0,5.1,30.31,NNW,338,0.9,2.9,84,0.00,,,0.00,WUHU216HW,2013-01-22 10:27:00,
2013-01-22 05:32:00,9.0,4.9,30.31,WSW,248,0.7,2.9,83,0.00,,,0.00,WUHU216HW,2013-01-22 10:32:00,
2013-01-22 05:37:00,9.0,4.9,30.31,South,180,2.2,2.7,83,0.00,,,0.00,WUHU216HW,2013-01-22 10:37:00,
2013-01-22 05:42:00,9.0,4.9,30.31,West,270,0.7,2.2,83,0.00,,,0.00,WUHU216HW,2013-01-22 10:42:00,
2013-01-22 05:47:00,9.0,4.3,30.31,WSW,248,2.2,2.5,81,0.00,,,0.00,WUHU216HW,2013-01-22 10:47:00,
2013-01-22 05:52:00,9.0,4.2,30.32,SSW,203,2.5,2.5,80,0.00,,,0.00,WUHU216HW,2013-01-22 10:52:00,
2013-01-22 05:57:00,9.2,3.7,30.32,South,180,3.6,3.6,78,0.00,,,0.00,WUHU216HW,2013-01-22 10:57:00,
2013-01-22 06:02:00,9.2,4.0,30.32,NNE,23,4.5,4.5,79,0.00,,,0.00,WUHU216HW,2013-01-22 11:02:00,
2013-01-22 06:07:00,9.4,4.1,30.32,North,0,0.4,4.5,79,0.00,,,0.00,WUHU216HW,2013-01-22 11:07:00,
2013-01-22 06:12:00,9.4,4.1,30.33,South,180,1.1,1.8,79,0.00,,,0.00,WUHU216HW,2013-01-22 11:12:00,
2013-01-22 06:17:00,9.5,4.6,30.33,SW,225,1.3,2.0,80,0.00,,,0.00,WUHU216HW,2013-01-22 11:17:00,
2013-01-22 06:22:00,9.7,4.5,30.33,WSW,248,2.0,4.5,79,0.00,,,0.00,WUHU216HW,2013-01-22 11:22:00,
2013-01-22 06:27:00,9.5,4.3,30.33,South,180,0.9,4.5,79,0.00,,,0.00,WUHU216HW,2013-01-22 11:27:00,
2013-01-22 06:32:00,9.5,4.1,30.33,NNW,338,1.1,4.9,78,0.00,,,0.00,WUHU216HW,2013-01-22 11:32:00,
2013-01-22 06:37:00,9.5,4.1,30.33,SSE,158,1.1,4.9,78,0.00,,,0.00,WUHU216HW,2013-01-22 11:37:00,
2013-01-22 06:42:00,9.5,4.1,30.34,SSE,158,0.2,2.5,78,0.00,,,0.00,WUHU216HW,2013-01-22 11:42:00,
2013-01-22 06:47:00,9.7,4.1,30.34,West,270,1.1,3.6,78,0.00,,,0.00,WUHU216HW,2013-01-22 11:47:00,
2013-01-22 06:52:00,9.5,4.1,30.35,NW,315,2.0,3.8,78,0.00,,,0.00,WUHU216HW,2013-01-22 11:52:00,
2013-01-22 06:57:00,9.5,4.1,30.35,NNW,338,1.1,4.7,78,0.00,,,0.00,WUHU216HW,2013-01-22 11:57:00,
2013-01-22 07:02:00,9.4,4.1,30.35,NNW,338,1.8,4.7,79,0.00,,,0.00,WUHU216HW,2013-01-22 12:02:00,
2013-01-22 07:07:00,9.4,3.9,30.35,SW,225,0.4,4.0,78,0.00,,,0.00,WUHU216HW,2013-01-22 12:07:00,
2013-01-22 07:12:00,9.2,2.8,30.35,SW,225,2.2,3.4,75,0.00,,,0.00,WUHU216HW,2013-01-22 12:12:00,
2013-01-22 07:17:00,9.2,3.2,30.35,NNE,23,1.6,3.4,76,0.00,,,0.00,WUHU216HW,2013-01-22 12:17:00,
2013-01-22 07:22:00,9.2,3.4,30.36,SW,225,1.1,2.9,77,0.00,,,0.00,WUHU216HW,2013-01-22 12:22:00,
2013-01-22 07:27:00,9.2,3.4,30.36,ESE,113,1.1,3.8,77,0.00,,,0.00,WUHU216HW,2013-01-22 12:27:00,
2013-01-22 07:32:00,9.2,3.4,30.36,South,180,0.4,3.8,77,0.00,,,0.00,WUHU216HW,2013-01-22 12:32:00,
2013-01-22 07:37:00,9.2,3.2,30.36,SW,225,2.5,3.1,76,0.00,,,0.00,WUHU216HW,2013-01-22 12:37:00,
2013-01-22 07:42:00,9.0,3.2,30.36,South,180,3.1,4.0,77,0.00,,,0.00,WUHU216HW,2013-01-22 12:42:00,
2013-01-22 07:47:00,9.0,3.5,30.36,NNW,338,4.3,4.3,78,0.00,,,0.00,WUHU216HW,2013-01-22 12:47:00,
2013-01-22 07:52:00,8.8,3.3,30.37,ESE,113,3.4,4.3,78,0.00,,,0.00,WUHU216HW,2013-01-22 12:52:00,
2013-01-22 07:57:00,8.6,3.5,30.37,NW,315,1.1,4.3,79,0.00,,,0.00,WUHU216HW,2013-01-22 12:57:00,
2013-01-22 08:02:00,8.6,3.8,30.37,WNW,293,3.1,3.1,80,0.00,,,0.00,WUHU216HW,2013-01-22 13:02:00,
2013-01-22 08:07:00,8.6,3.8,30.38,NW,315,3.4,5.6,80,0.00,,,0.00,WUHU216HW,2013-01-22 13:07:00,
2013-01-22 08:12:00,8.6,3.8,30.37,North,0,0.2,5.6,80,0.00,,,0.00,WUHU216HW,2013-01-22 13:12:00,
2013-01-22 08:17:00,8.6,3.3,30.38,West,270,2.5,3.6,78,0.00,,,0.00,WUHU216HW,2013-01-22 13:17:00,
2013-01-22 08:22:00,8.6,3.3,30.38,North,0,0.9,5.4,78,0.00,,,0.00,WUHU216HW,2013-01-22 13:22:00,
2013-01-22 08:27:00,8.6,3.3,30.38,SE,135,2.5,5.4,78,0.00,,,0.00,WUHU216HW,2013-01-22 13:27:00,
2013-01-22 08:32:00,8.6,3.3,30.38,SW,225,2.0,2.7,78,0.00,,,0.00,WUHU216HW,2013-01-22 13:32:00,
2013-01-22 08:38:00,8.6,3.5,30.38,NW,315,2.0,2.5,79,0.00,,,0.00,WUHU216HW,2013-01-22 13:38:00,
2013-01-22 08:43:00,8.8,3.3,30.39,WNW,293,1.1,2.5,78,0.00,,,0.00,WUHU216HW,2013-01-22 13:43:00,
2013-01-22 08:48:00,8.6,3.5,30.39,WSW,248,2.5,2.5,79,0.00,,,0.00,WUHU216HW,2013-01-22 13:48:00,
2013-01-22 08:53:00,8.6,3.8,30.39,ESE,113,1.8,4.5,80,0.00,,,0.00,WUHU216HW,2013-01-22 13:53:00,
2013-01-22 08:58:00,8.6,3.8,30.40,NNW,338,3.1,4.5,80,0.00,,,0.00,WUHU216HW,2013-01-22 13:58:00,
2013-01-22 09:03:00,8.6,4.1,30.40,North,0,1.3,3.4,81,0.00,,,0.00,WUHU216HW,2013-01-22 14:03:00,
2013-01-22 09:07:00,8.5,3.6,30.40,West,270,0.9,4.0,80,0.00,,,0.00,WUHU216HW,2013-01-22 14:07:00,
2013-01-22 09:13:00,8.3,3.7,30.41,ENE,68,2.5,4.0,81,0.00,,,0.00,WUHU216HW,2013-01-22 14:13:00,
2013-01-22 09:18:00,8.3,3.4,30.41,NW,315,1.6,5.6,80,0.00,,,0.00,WUHU216HW,2013-01-22 14:18:00,
2013-01-22 09:22:00,8.3,3.4,30.41,WSW,248,2.5,5.6,80,0.00,,,0.00,WUHU216HW,2013-01-22 14:22:00,
2013-01-22 09:27:00,8.3,3.4,30.41,SW,225,1.6,2.5,80,0.00,,,0.00,WUHU216HW,2013-01-22 14:27:00,
2013-01-22 09:32:00,8.3,3.4,30.41,SW,225,1.6,3.4,80,0.00,,,0.00,WUHU216HW,2013-01-22 14:32:00,
2013-01-22 09:38:00,8.3,3.4,30.41,SSW,203,1.1,3.4,80,0.00,,,0.00,WUHU216HW,2013-01-22 14:38:00,
2013-01-22 09:43:00,8.3,3.4,30.42,WSW,248,0.4,3.1,80,0.00,,,0.00,WUHU216HW,2013-01-22 14:43:00,
2013-01-22 09:48:00,8.1,3.2,30.42,South,180,0.9,4.7,80,0.00,,,0.00,WUHU216HW,2013-01-22 14:48:00,
2013-01-22 09:53:00,8.1,3.5,30.42,West,270,0.4,4.7,81,0.00,,,0.00,WUHU216HW,2013-01-22 14:53:00,
2013-01-22 09:58:00,8.3,4.0,30.43,WNW,293,2.7,2.7,82,0.00,,,0.00,WUHU216HW,2013-01-22 14:58:00,
2013-01-22 10:03:00,8.5,3.9,30.43,South,180,0.2,4.0,81,0.00,,,0.00,WUHU216HW,2013-01-22 15:03:00,
2013-01-22 10:08:00,8.6,4.1,30.43,West,270,2.0,4.0,81,0.00,,,0.00,WUHU216HW,2013-01-22 15:08:00,
2013-01-22 10:13:00,8.6,4.1,30.43,WNW,293,3.8,3.8,81,0.00,,,0.00,WUHU216HW,2013-01-22 15:13:00,
2013-01-22 10:18:00,9.0,4.3,30.43,NNW,338,0.7,3.8,81,0.00,,,0.00,WUHU216HW,2013-01-22 15:18:00,
2013-01-22 10:23:00,9.0,4.2,30.43,WNW,293,1.8,1.8,80,0.00,,,0.00,WUHU216HW,2013-01-22 15:23:00,
2013-01-22 10:28:00,8.8,4.0,30.43,WSW,248,1.1,4.0,80,0.00,,,0.00,WUHU216HW,2013-01-22 15:28:00,
2013-01-22 10:33:00,8.5,3.3,30.44,WSW,248,1.8,4.0,79,0.00,,,0.00,WUHU216HW,2013-01-22 15:33:00,
2013-01-22 10:38:00,8.6,3.8,30.43,SW,225,0.9,3.6,80,0.00,,,0.00,WUHU216HW,2013-01-22 15:38:00,
2013-01-22 10:43:00,9.0,4.2,30.44,ENE,68,0.2,1.3,80,0.00,,,0.00,WUHU216HW,2013-01-22 15:43:00,
2013-01-22 10:48:00,9.0,3.8,30.44,NNW,338,0.7,5.6,79,0.00,,,0.00,WUHU216HW,2013-01-22 15:48:00,
2013-01-22 10:53:00,8.8,4.0,30.44,NNW,338,1.6,5.6,80,0.00,,,0.00,WUHU216HW,2013-01-22 15:53:00,
2013-01-22 10:58:00,8.6,3.8,30.44,WSW,248,3.1,3.8,80,0.00,,,0.00,WUHU216HW,2013-01-22 15:58:00,
2013-01-22 11:03:00,8.6,3.8,30.44,SW,225,4.0,4.0,80,0.00,,,0.00,WUHU216HW,2013-01-22 16:03:00,
2013-01-22 11:08:00,8.6,3.8,30.44,North,0,0.9,4.0,80,0.00,,,0.00,WUHU216HW,2013-01-22 16:08:00,
2013-01-22 11:13:00,8.6,3.8,30.44,NW,315,2.5,3.4,80,0.00,,,0.00,WUHU216HW,2013-01-22 16:13:00,
2013-01-22 11:18:00,9.0,4.2,30.44,NW,315,2.5,3.4,80,0.00,,,0.00,WUHU216HW,2013-01-22 16:18:00,
2013-01-22 11:23:00,9.2,4.5,30.44,NNW,338,2.7,3.4,81,0.00,,,0.00,WUHU216HW,2013-01-22 16:23:00,
2013-01-22 11:28:00,9.2,4.2,30.44,West,270,0.4,2.7,80,0.00,,,0.00,WUHU216HW,2013-01-22 16:28:00,
2013-01-22 11:33:00,9.7,4.8,30.44,West,270,1.3,5.4,80,0.00,,,0.00,WUHU216HW,2013-01-22 16:33:00,
2013-01-22 11:38:00,9.9,5.2,30.44,East,90,2.9,5.4,81,0.00,,,0.00,WUHU216HW,2013-01-22 16:38:00,
2013-01-22 11:43:00,9.9,4.6,30.44,SSW,203,2.5,4.3,79,0.00,,,0.00,WUHU216HW,2013-01-22 16:43:00,
2013-01-22 11:48:00,9.7,4.8,30.44,West,270,3.1,4.3,80,0.00,,,0.00,WUHU216HW,2013-01-22 16:48:00,
2013-01-22 11:53:00,10.1,5.0,30.44,SSE,158,2.0,3.4,80,0.00,,,0.00,WUHU216HW,2013-01-22 16:53:00,
2013-01-22 11:58:00,9.9,4.6,30.43,West,270,3.4,4.3,79,0.00,,,0.00,WUHU216HW,2013-01-22 16:58:00,
2013-01-22 12:03:00,10.1,4.5,30.43,NNE,23,1.6,4.3,78,0.00,,,0.00,WUHU216HW,2013-01-22 17:03:00,
2013-01-22 12:08:00,10.6,5.3,30.43,SE,135,2.5,4.5,79,0.00,,,0.00,WUHU216HW,2013-01-22 17:08:00,
2013-01-22 12:13:00,10.4,4.0,30.43,SSW,203,4.3,4.5,75,0.00,,,0.00,WUHU216HW,2013-01-22 17:13:00,
2013-01-22 12:18:00,10.4,4.0,30.42,South,180,2.2,4.3,75,0.00,,,0.00,WUHU216HW,2013-01-22 17:18:00,
2013-01-22 12:23:00,9.9,2.9,30.42,NNE,23,1.8,4.0,73,0.00,,,0.00,WUHU216HW,2013-01-22 17:23:00,
2013-01-22 12:28:00,10.1,3.6,30.42,SSE,158,0.2,4.0,75,0.00,,,0.00,WUHU216HW,2013-01-22 17:28:00,
2013-01-22 12:33:00,10.4,3.7,30.42,WNW,293,2.0,3.8,74,0.00,,,0.00,WUHU216HW,2013-01-22 17:33:00,
2013-01-22 12:38:00,10.4,3.7,30.42,SW,225,2.2,3.8,74,0.00,,,0.00,WUHU216HW,2013-01-22 17:38:00,
2013-01-22 12:43:00,10.6,3.9,30.42,North,0,0.9,2.5,74,0.00,,,0.00,WUHU216HW,2013-01-22 17:43:00,
2013-01-22 12:48:00,10.8,4.1,30.42,SSW,203,2.5,2.9,74,0.00,,,0.00,WUHU216HW,2013-01-22 17:48:00,
2013-01-22 12:53:00,11.9,5.1,30.42,NW,315,2.5,2.9,74,0.00,,,0.00,WUHU216HW,2013-01-22 17:53:00,
2013-01-22 12:58:00,12.6,5.2,30.41,SSW,203,2.5,3.4,72,0.00,,,0.00,WUHU216HW,2013-01-22 17:58:00,
2013-01-22 13:03:00,11.9,4.5,30.41,SW,225,2.7,4.9,72,0.00,,,0.00,WUHU216HW,2013-01-22 18:03:00,
2013-01-22 13:08:00,11.3,4.3,30.41,WSW,248,2.5,4.9,73,0.00,,,0.00,WUHU216HW,2013-01-22 18:08:00,
2013-01-22 13:13:00,10.8,4.1,30.41,SW,225,4.9,4.9,74,0.00,,,0.00,WUHU216HW,2013-01-22 18:13:00,
2013-01-22 13:18:00,10.6,3.9,30.41,WSW,248,1.8,4.9,74,0.00,,,0.00,WUHU216HW,2013-01-22 18:18:00,
2013-01-22 13:23:00,11.0,4.0,30.41,WNW,293,0.4,4.7,73,0.00,,,0.00,WUHU216HW,2013-01-22 18:23:00,
2013-01-22 13:28:00,11.2,4.4,30.41,NNW,338,2.0,3.6,74,0.00,,,0.00,WUHU216HW,2013-01-22 18:28:00,
2013-01-22 13:33:00,11.3,4.3,30.40,North,0,0.4,3.4,73,0.00,,,0.00,WUHU216HW,2013-01-22 18:33:00,
2013-01-22 13:38:00,11.7,4.1,30.40,SSE,158,2.5,2.5,71,0.00,,,0.00,WUHU216HW,2013-01-22 18:38:00,
2013-01-22 13:43:00,11.9,3.2,30.40,WNW,293,1.8,2.5,68,0.00,,,0.00,WUHU216HW,2013-01-22 18:43:00,
2013-01-22 13:48:00,11.7,1.5,30.40,West,270,1.3,2.2,63,0.00,,,0.00,WUHU216HW,2013-01-22 18:48:00,
2013-01-22 13:53:00,11.3,0.1,30.40,SW,225,3.1,4.7,60,0.00,,,0.00,WUHU216HW,2013-01-22 18:53:00,
2013-01-22 13:58:00,11.5,0.6,30.40,West,270,2.9,4.7,61,0.00,,,0.00,WUHU216HW,2013-01-22 18:58:00,
2013-01-22 14:03:00,11.5,1.3,30.40,WNW,293,2.5,4.7,63,0.00,,,0.00,WUHU216HW,2013-01-22 19:03:00,
2013-01-22 14:08:00,11.9,1.6,30.40,NNE,23,2.7,3.4,63,0.00,,,0.00,WUHU216HW,2013-01-22 19:08:00,
2013-01-22 14:13:00,11.2,0.6,30.40,SSE,158,0.4,2.7,62,0.00,,,0.00,WUHU216HW,2013-01-22 19:13:00,
2013-01-22 14:18:00,10.8,0.6,30.40,SSW,203,1.1,3.1,63,0.00,,,0.00,WUHU216HW,2013-01-22 19:18:00,
2013-01-22 14:23:00,10.8,0.9,30.41,WNW,293,1.1,3.1,64,0.00,,,0.00,WUHU216HW,2013-01-22 19:23:00,
2013-01-22 14:28:00,11.3,1.5,30.41,West,270,0.7,2.5,64,0.00,,,0.00,WUHU216HW,2013-01-22 19:28:00,
2013-01-22 14:33:00,12.6,3.0,30.41,WNW,293,2.0,2.5,65,0.00,,,0.00,WUHU216HW,2013-01-22 19:33:00,
2013-01-22 14:38:00,12.6,1.6,30.41,South,180,2.0,4.5,61,0.00,,,0.00,WUHU216HW,2013-01-22 19:38:00,
2013-01-22 14:43:00,12.1,1.5,30.41,South,180,1.3,4.5,62,0.00,,,0.00,WUHU216HW,2013-01-22 19:43:00,
2013-01-22 14:48:00,11.7,0.5,30.41,South,180,3.6,3.6,60,0.00,,,0.00,WUHU216HW,2013-01-22 19:48:00,
2013-01-22 14:53:00,11.2,0.3,30.41,West,270,1.1,4.7,61,0.00,,,0.00,WUHU216HW,2013-01-22 19:53:00,
2013-01-22 14:58:00,10.8,0.3,30.41,SSW,203,0.4,4.7,62,0.00,,,0.00,WUHU216HW,2013-01-22 19:58:00,
2013-01-22 15:03:00,10.8,0.3,30.41,NNW,338,1.8,4.0,62,0.00,,,0.00,WUHU216HW,2013-01-22 20:03:00,
2013-01-22 15:08:00,10.8,0.6,30.41,WSW,248,2.5,4.0,63,0.00,,,0.00,WUHU216HW,2013-01-22 20:08:00,
2013-01-22 15:13:00,11.2,0.9,30.41,South,180,1.6,3.1,63,0.00,,,0.00,WUHU216HW,2013-01-22 20:13:00,
2013-01-22 15:18:00,11.3,0.5,30.42,WSW,248,2.2,3.6,61,0.00,,,0.00,WUHU216HW,2013-01-22 20:18:00,
2013-01-22 15:23:00,11.3,1.5,30.42,SW,225,1.8,3.6,64,0.00,,,0.00,WUHU216HW,2013-01-22 20:23:00,
2013-01-22 15:28:00,11.3,1.8,30.42,SSW,203,1.1,4.7,65,0.00,,,0.00,WUHU216HW,2013-01-22 20:28:00,
2013-01-22 15:33:00,11.5,2.6,30.42,West,270,3.1,5.1,67,0.00,,,0.00,WUHU216HW,2013-01-22 20:33:00,
2013-01-22 15:38:00,11.5,2.3,30.42,SW,225,2.5,5.1,66,0.00,,,0.00,WUHU216HW,2013-01-22 20:38:00,
2013-01-22 15:43:00,11.2,1.9,30.42,NE,45,0.4,2.5,66,0.00,,,0.00,WUHU216HW,2013-01-22 20:43:00,
2013-01-22 15:48:00,11.3,1.5,30.42,NW,315,3.1,3.1,64,0.00,,,0.00,WUHU216HW,2013-01-22 20:48:00,
2013-01-22 15:53:00,11.5,1.9,30.42,East,90,1.8,3.4,65,0.00,,,0.00,WUHU216HW,2013-01-22 20:53:00,
2013-01-22 15:58:00,11.3,2.1,30.42,WSW,248,2.7,3.4,66,0.00,,,0.00,WUHU216HW,2013-01-22 20:58:00,
2013-01-22 16:03:00,11.2,2.9,30.42,SSW,203,0.4,2.7,69,0.00,,,0.00,WUHU216HW,2013-01-22 21:03:00,
2013-01-22 16:08:00,11.0,3.1,30.42,WNW,293,3.8,3.8,70,0.00,,,0.00,WUHU216HW,2013-01-22 21:08:00,
2013-01-22 16:13:00,11.2,3.5,30.42,SW,225,0.4,3.8,71,0.00,,,0.00,WUHU216HW,2013-01-22 21:13:00,
2013-01-22 16:18:00,11.2,2.6,30.42,West,270,2.0,3.6,68,0.00,,,0.00,WUHU216HW,2013-01-22 21:18:00,
2013-01-22 16:23:00,11.3,2.4,30.42,WNW,293,1.8,3.6,67,0.00,,,0.00,WUHU216HW,2013-01-22 21:23:00,
2013-01-22 16:28:00,11.2,2.6,30.42,West,270,0.9,2.9,68,0.00,,,0.00,WUHU216HW,2013-01-22 21:28:00,
2013-01-22 16:31:00,11.2,2.6,30.42,NW,315,1.1,3.4,68,0.00,,,0.00,WUHU216HW,2013-01-22 21:31:00,
2013-01-22 16:36:00,11.2,3.2,30.42,SSW,203,0.4,3.4,70,0.00,,,0.00,WUHU216HW,2013-01-22 21:36:00,
2013-01-22 16:42:00,11.0,3.6,30.42,SSW,203,0.2,1.3,72,0.00,,,0.00,WUHU216HW,2013-01-22 21:42:00,
2013-01-22 16:47:00,11.2,3.8,30.42,NW,315,0.9,1.6,72,0.00,,,0.00,WUHU216HW,2013-01-22 21:47:00,
2013-01-22 16:52:00,11.0,3.3,30.42,WSW,248,0.4,2.0,71,0.00,,,0.00,WUHU216HW,2013-01-22 21:52:00,
2013-01-22 16:57:00,11.0,3.3,30.42,SSW,203,0.7,2.5,71,0.00,,,0.00,WUHU216HW,2013-01-22 21:57:00,
2013-01-22 17:02:00,10.8,3.2,30.42,WSW,248,1.1,2.5,71,0.00,,,0.00,WUHU216HW,2013-01-22 22:02:00,
2013-01-22 17:07:00,10.6,3.2,30.42,West,270,0.4,1.3,72,0.00,,,0.00,WUHU216HW,2013-01-22 22:07:00,
2013-01-22 17:12:00,10.6,3.2,30.41,SSW,203,1.6,1.6,72,0.00,,,0.00,WUHU216HW,2013-01-22 22:12:00,
2013-01-22 17:17:00,10.4,3.1,30.42,WSW,248,0.4,1.6,72,0.00,,,0.00,WUHU216HW,2013-01-22 22:17:00,
2013-01-22 17:22:00,10.4,3.1,30.41,SSW,203,0.4,2.2,72,0.00,,,0.00,WUHU216HW,2013-01-22 22:22:00,
2013-01-22 17:27:00,10.4,3.1,30.42,West,270,0.2,2.2,72,0.00,,,0.00,WUHU216HW,2013-01-22 22:27:00,
2013-01-22 17:32:00,10.4,2.8,30.42,SE,135,0.4,1.3,71,0.00,,,0.00,WUHU216HW,2013-01-22 22:32:00,
2013-01-22 17:37:00,10.4,2.5,30.42,WSW,248,1.1,2.7,70,0.00,,,0.00,WUHU216HW,2013-01-22 22:37:00,
2013-01-22 17:42:00,10.4,1.5,30.42,West,270,1.3,2.7,67,0.00,,,0.00,WUHU216HW,2013-01-22 22:42:00,
2013-01-22 17:47:00,10.4,0.9,30.43,SSW,203,2.0,3.4,65,0.00,,,0.00,WUHU216HW,2013-01-22 22:47:00,
2013-01-22 17:52:00,10.4,0.9,30.43,SSE,158,0.0,3.4,65,0.00,,,0.00,WUHU216HW,2013-01-22 22:52:00,
2013-01-22 17:57:00,10.4,0.9,30.42,South,180,0.0,2.9,65,0.00,,,0.00,WUHU216HW,2013-01-22 22:57:00,
2013-01-22 18:02:00,10.6,1.1,30.43,SSW,203,0.7,2.5,65,0.00,,,0.00,WUHU216HW,2013-01-22 23:02:00,
2013-01-22 18:07:00,10.6,1.1,30.43,SW,225,1.1,1.8,65,0.00,,,0.00,WUHU216HW,2013-01-22 23:07:00,
2013-01-22 18:12:00,10.8,1.3,30.43,SW,225,2.5,2.5,65,0.00,,,0.00,WUHU216HW,2013-01-22 23:12:00,
2013-01-22 18:17:00,10.8,1.5,30.43,South,180,1.6,2.5,66,0.00,,,0.00,WUHU216HW,2013-01-22 23:17:00,
2013-01-22 18:22:00,10.8,1.5,30.43,SSW,203,1.1,4.3,66,0.00,,,0.00,WUHU216HW,2013-01-22 23:22:00,
2013-01-22 18:27:00,10.8,1.9,30.43,SW,225,1.3,4.3,67,0.00,,,0.00,WUHU216HW,2013-01-22 23:27:00,
2013-01-22 18:32:00,10.8,1.9,30.44,SW,225,0.4,2.9,67,0.00,,,0.00,WUHU216HW,2013-01-22 23:32:00,
2013-01-22 18:37:00,10.8,1.9,30.44,SSW,203,1.6,1.8,67,0.00,,,0.00,WUHU216HW,2013-01-22 23:37:00,
2013-01-22 18:42:00,10.8,1.5,30.44,SW,225,1.1,4.0,66,0.00,,,0.00,WUHU216HW,2013-01-22 23:42:00,
2013-01-22 18:47:00,10.8,1.9,30.44,WNW,293,0.4,4.0,67,0.00,,,0.00,WUHU216HW,2013-01-22 23:47:00,
2013-01-22 18:52:00,10.8,1.9,30.44,SW,225,2.7,2.7,67,0.00,,,0.00,WUHU216HW,2013-01-22 23:52:00,
2013-01-22 18:57:00,10.8,2.3,30.44,West,270,0.4,3.4,68,0.00,,,0.00,WUHU216HW,2013-01-22 23:57:00,
2013-01-22 19:02:00,10.8,1.9,30.44,South,180,2.5,3.4,67,0.00,,,0.00,WUHU216HW,2013-01-23 00:02:00,
2013-01-22 19:07:00,10.8,2.3,30.44,SE,135,1.8,4.0,68,0.00,,,0.00,WUHU216HW,2013-01-23 00:07:00,
2013-01-22 19:12:00,10.6,1.7,30.44,SSE,158,2.9,4.0,67,0.00,,,0.00,WUHU216HW,2013-01-23 00:12:00,
2013-01-22 19:17:00,10.6,2.1,30.44,WSW,248,1.1,3.4,68,0.00,,,0.00,WUHU216HW,2013-01-23 00:17:00,
2013-01-22 19:22:00,10.6,2.1,30.44,SSW,203,0.7,3.4,68,0.00,,,0.00,WUHU216HW,2013-01-23 00:22:00,
2013-01-22 19:27:00,10.4,2.2,30.44,SW,225,1.3,5.1,69,0.00,,,0.00,WUHU216HW,2013-01-23 00:27:00,
2013-01-22 19:32:00,10.4,2.2,30.43,WNW,293,1.6,5.1,69,0.00,,,0.00,WUHU216HW,2013-01-23 00:32:00,
2013-01-22 19:37:00,10.4,2.5,30.43,WNW,293,2.7,4.0,70,0.00,,,0.00,WUHU216HW,2013-01-23 00:37:00,
2013-01-22 19:42:00,10.4,2.8,30.43,South,180,1.1,2.7,71,0.00,,,0.00,WUHU216HW,2013-01-23 00:42:00,
2013-01-22 19:47:00,10.4,2.5,30.44,West,270,3.4,3.4,70,0.00,,,0.00,WUHU216HW,2013-01-23 00:47:00,
2013-01-22 19:52:00,10.4,2.8,30.43,SSW,203,0.4,3.8,71,0.00,,,0.00,WUHU216HW,2013-01-23 00:52:00,
2013-01-22 19:57:00,10.4,2.8,30.43,North,0,2.5,4.0,71,0.00,,,0.00,WUHU216HW,2013-01-23 00:57:00,
2013-01-22 20:02:00,10.4,2.8,30.43,SSE,158,2.7,4.0,71,0.00,,,0.00,WUHU216HW,2013-01-23 01:02:00,
2013-01-22 20:07:00,10.4,2.8,30.44,South,180,1.3,2.7,71,0.00,,,0.00,WUHU216HW,2013-01-23 01:07:00,
2013-01-22 20:12:00,10.4,2.5,30.43,NW,315,1.8,2.5,70,0.00,,,0.00,WUHU216HW,2013-01-23 01:12:00,
2013-01-22 20:17:00,10.4,2.8,30.43,SSW,203,1.8,2.7,71,0.00,,,0.00,WUHU216HW,2013-01-23 01:17:00,
2013-01-22 20:22:00,10.4,2.8,30.43,WSW,248,1.1,2.7,71,0.00,,,0.00,WUHU216HW,2013-01-23 01:22:00,
2013-01-22 20:27:00,10.4,2.8,30.44,SSW,203,1.8,2.9,71,0.00,,,0.00,WUHU216HW,2013-01-23 01:27:00,
2013-01-22 20:32:00,10.4,3.4,30.44,SW,225,1.3,3.4,73,0.00,,,0.00,WUHU216HW,2013-01-23 01:32:00,
2013-01-22 20:37:00,10.4,3.1,30.44,SW,225,3.1,3.4,72,0.00,,,0.00,WUHU216HW,2013-01-23 01:37:00,
2013-01-22 20:42:00,10.4,3.4,30.43,South,180,2.9,4.7,73,0.00,,,0.00,WUHU216HW,2013-01-23 01:42:00,
2013-01-22 20:47:00,10.4,3.1,30.43,WNW,293,3.1,4.7,72,0.00,,,0.00,WUHU216HW,2013-01-23 01:47:00,
2013-01-22 20:52:00,10.4,3.7,30.43,SSW,203,2.9,4.3,74,0.00,,,0.00,WUHU216HW,2013-01-23 01:52:00,
2013-01-22 20:57:00,10.4,3.4,30.43,North,0,0.9,3.4,73,0.00,,,0.00,WUHU216HW,2013-01-23 01:57:00,
2013-01-22 21:02:00,10.4,3.7,30.43,SSE,158,1.1,2.5,74,0.00,,,0.00,WUHU216HW,2013-01-23 02:02:00,
2013-01-22 21:07:00,10.4,3.7,30.43,South,180,1.1,2.5,74,0.00,,,0.00,WUHU216HW,2013-01-23 02:07:00,
2013-01-22 21:12:00,10.4,3.7,30.43,NNW,338,0.7,5.8,74,0.00,,,0.00,WUHU216HW,2013-01-23 02:12:00,
2013-01-22 21:17:00,10.4,4.0,30.43,South,180,3.8,5.8,75,0.00,,,0.00,WUHU216HW,2013-01-23 02:17:00,
2013-01-22 21:22:00,10.4,4.5,30.43,West,270,0.7,3.8,77,0.00,,,0.00,WUHU216HW,2013-01-23 02:22:00,
2013-01-22 21:27:00,10.3,4.1,30.43,SW,225,4.0,4.3,76,0.00,,,0.00,WUHU216HW,2013-01-23 02:27:00,
2013-01-22 21:33:00,10.4,4.0,30.43,SW,225,0.4,4.3,75,0.00,,,0.00,WUHU216HW,2013-01-23 02:33:00,
2013-01-22 21:38:00,10.4,4.0,30.43,West,270,1.1,3.8,75,0.00,,,0.00,WUHU216HW,2013-01-23 02:38:00,
2013-01-22 21:43:00,10.4,3.4,30.43,SSW,203,3.6,3.6,73,0.00,,,0.00,WUHU216HW,2013-01-23 02:43:00,
2013-01-22 21:48:00,10.4,3.4,30.43,SSE,158,1.3,3.6,73,0.00,,,0.00,WUHU216HW,2013-01-23 02:48:00,
2013-01-22 21:53:00,10.4,3.4,30.43,South,180,2.7,3.4,73,0.00,,,0.00,WUHU216HW,2013-01-23 02:53:00,
2013-01-22 21:58:00,10.6,3.2,30.43,SSW,203,3.6,3.6,72,0.00,,,0.00,WUHU216HW,2013-01-23 02:58:00,
2013-01-22 22:03:00,10.6,3.6,30.43,SSW,203,1.1,3.8,73,0.00,,,0.00,WUHU216HW,2013-01-23 03:03:00,
2013-01-22 22:08:00,10.4,3.1,30.43,SSE,158,1.6,3.8,72,0.00,,,0.00,WUHU216HW,2013-01-23 03:08:00,
2013-01-22 22:13:00,10.6,3.2,30.43,West,270,1.1,3.8,72,0.00,,,0.00,WUHU216HW,2013-01-23 03:13:00,
2013-01-22 22:18:00,10.6,3.0,30.42,WSW,248,0.9,3.1,71,0.00,,,0.00,WUHU216HW,2013-01-23 03:18:00,
2013-01-22 22:23:00,10.6,2.7,30.42,NW,315,0.4,4.0,70,0.00,,,0.00,WUHU216HW,2013-01-23 03:23:00,
2013-01-22 22:28:00,10.6,2.3,30.42,SW,225,2.5,4.9,69,0.00,,,0.00,WUHU216HW,2013-01-23 03:28:00,
2013-01-22 22:33:00,10.8,2.3,30.42,SW,225,4.7,4.9,68,0.00,,,0.00,WUHU216HW,2013-01-23 03:33:00,
2013-01-22 22:38:00,10.6,2.3,30.42,WSW,248,1.1,4.7,69,0.00,,,0.00,WUHU216HW,2013-01-23 03:38:00,
2013-01-22 22:43:00,10.6,2.3,30.42,SSW,203,0.7,2.5,69,0.00,,,0.00,WUHU216HW,2013-01-23 03:43:00,
2013-01-22 22:48:00,10.4,2.2,30.42,WSW,248,0.4,2.9,69,0.00,,,0.00,WUHU216HW,2013-01-23 03:48:00,
2013-01-22 22:53:00,10.4,2.2,30.42,SSW,203,0.7,3.1,69,0.00,,,0.00,WUHU216HW,2013-01-23 03:53:00,
2013-01-22 22:58:00,10.4,2.2,30.43,ESE,113,2.5,3.1,69,0.00,,,0.00,WUHU216HW,2013-01-23 03:58:00,
2013-01-22 23:03:00,10.4,1.9,30.43,SW,225,2.9,3.4,68,0.00,,,0.00,WUHU216HW,2013-01-23 04:03:00,
2013-01-22 23:08:00,10.4,1.9,30.43,South,180,0.4,3.4,68,0.00,,,0.00,WUHU216HW,2013-01-23 04:08:00,
2013-01-22 23:13:00,10.4,1.5,30.43,North,0,0.2,3.8,67,0.00,,,0.00,WUHU216HW,2013-01-23 04:13:00,
2013-01-22 23:18:00,10.4,1.9,30.42,SSW,203,1.1,3.8,68,0.00,,,0.00,WUHU216HW,2013-01-23 04:18:00,
2013-01-22 23:23:00,10.6,2.3,30.43,NW,315,1.1,2.2,69,0.00,,,0.00,WUHU216HW,2013-01-23 04:23:00,
2013-01-22 23:28:00,10.4,2.5,30.42,South,180,1.1,2.0,70,0.00,,,0.00,WUHU216HW,2013-01-23 04:28:00,
2013-01-22 23:33:00,10.4,2.2,30.43,SSW,203,1.3,3.6,69,0.00,,,0.00,WUHU216HW,2013-01-23 04:33:00,
2013-01-22 23:38:00,10.4,2.2,30.42,NNE,23,0.2,3.6,69,0.00,,,0.00,WUHU216HW,2013-01-23 04:38:00,
2013-01-22 23:43:00,10.4,1.9,30.43,WSW,248,0.9,3.6,68,0.00,,,0.00,WUHU216HW,2013-01-23 04:43:00,
2013-01-22 23:48:00,10.4,1.9,30.43,WSW,248,3.4,3.4,68,0.00,,,0.00,WUHU216HW,2013-01-23 04:48:00,
2013-01-22 23:53:00,10.3,1.4,30.42,WSW,248,0.9,4.7,67,0.00,,,0.00,WUHU216HW,2013-01-23 04:53:00,
2013-01-22 23:58:00,10.3,1.7,30.43,WNW,293,1.1,4.7,68,0.00,,,0.00,WUHU216HW,2013-01-23 04:58:00,